Stations météo

Publicité
Socoa, France (7600): Température de l'air & dewpoint: 21.06.2019 12:00:00 - 27.06.2019 12:00:00 (CEST)Socoa, France (7600): Vitesse du vent & gusts: 21.06.2019 12:00:00 - 27.06.2019 12:00:00 (CEST)Socoa, France (7600): Direction du vent: 21.06.2019 12:00:00 - 27.06.2019 12:00:00 (CEST)Socoa, France (7600): reduced air pressure: 21.06.2019 12:00:00 - 27.06.2019 12:00:00 (CEST)Socoa, France (7600): visibility: 21.06.2019 12:00:00 - 27.06.2019 12:00:00 (CEST)Socoa, France (7600): Quantités de précipitations: 21.06.2019 12:00:00 - 27.06.2019 12:00:00 (CEST)
Date & Time tt [°C] td [°C] ff [km/h] ff [knt] fx [km/h] fx [knt] dd ppp [hPa] vv [km] rr [mm]
27.06.2019 12:00:00 26,7 20,5 16 9 27 15 ENE 1017,6 - 0,0
27.06.2019 11:00:00 25,2 19,1 21 12 30 16 E 1017,9 - 0,0
27.06.2019 10:00:00 23,4 18,3 18 10 30 16 ENE 1018,2 - 0,0
27.06.2019 09:00:00 21,6 17,4 9 5 15 8 ENE 1018,6 - 0,0
27.06.2019 08:00:00 19,3 17,4 9 5 12 7 E 1018,7 15 0,0
27.06.2019 07:00:00 17,8 16,3 3 2 11 6 SSE 1018,4 - 0,0
27.06.2019 06:00:00 17,9 16,1 7 4 16 9 SSW 1018,5 - 0,0
27.06.2019 05:00:00 18,9 16,9 10 5 26 14 W 1018,8 12 0,0
27.06.2019 04:00:00 19,2 17,2 18 10 29 16 W 1018,7 - 0,0
27.06.2019 03:00:00 19,3 16,9 20 11 34 18 W 1018,8 - 0,0
27.06.2019 02:00:00 19,4 17,2 26 14 48 26 W 1018,8 12 0,0
27.06.2019 01:00:00 19,7 17,7 38 20 59 32 W 1018,3 - 0,0
27.06.2019 00:00:00 20,2 18,1 42 23 73 40 WSW 1017,1 - 0,0
26.06.2019 23:00:00 21,9 19,1 56 31 74 40 W 1015,5 16 0,0
26.06.2019 22:00:00 28,2 22,9 13 7 20 11 NE 1012,9 - 0,0
26.06.2019 21:00:00 30,4 23,3 15 8 27 15 ENE 1012,6 - 0,0
26.06.2019 20:00:00 32,1 22,5 20 11 29 16 E 1012,2 25 0,0
26.06.2019 19:00:00 31,7 22,4 21 11 29 16 E 1012,0 - 0,0
26.06.2019 18:00:00 33,1 23,1 17 9 24 13 ENE 1012,6 - 0,0
26.06.2019 17:00:00 32,7 22,2 13 7 33 18 E 1012,8 - 0,0
26.06.2019 16:00:00 31,4 21,9 22 12 31 17 E 1013,4 - 0,0
26.06.2019 15:00:00 31,4 22,1 22 12 28 15 E 1013,9 - 0,0
26.06.2019 14:00:00 29,3 22,0 15 8 22 12 ENE 1014,6 - 0,0
26.06.2019 13:00:00 25,7 20,9 16 9 21 12 NE 1015,6 - 0,0
26.06.2019 12:00:00 24,9 19,9 7 4 19 10 E 1016,2 - 0,0
26.06.2019 11:00:00 21,4 18,6 14 8 31 17 E 1016,3 12 0,0
26.06.2019 10:00:00 19,7 18,0 16 9 24 13 E 1016,5 - 0,0
26.06.2019 09:00:00 19,3 17,8 4 2 9 5 E 1016,5 - 0,0
26.06.2019 08:00:00 19,1 17,8 7 4 16 9 NW 1016,7 - 0,0
26.06.2019 07:00:00 19,1 17,6 14 7 18 10 W 1016,7 - 0,0
26.06.2019 06:00:00 19,2 17,9 14 7 25 13 W 1016,3 - 0,0
26.06.2019 05:00:00 19,2 17,7 18 10 24 13 W 1016,0 - 0,0
26.06.2019 04:00:00 19,2 17,7 16 8 26 14 W 1016,0 - 0,0
26.06.2019 03:00:00 19,4 17,9 19 11 26 14 W 1016,5 - 0,0
26.06.2019 02:00:00 19,3 17,6 16 8 31 17 W 1017,1 18 0,0
26.06.2019 01:00:00 19,5 18,2 23 12 31 17 W 1017,7 - 0,0
26.06.2019 00:00:00 19,6 18,1 23 12 34 18 W 1017,5 - 0,0
25.06.2019 23:00:00 19,7 18,0 24 13 30 16 W 1017,2 16 0,0
25.06.2019 22:00:00 19,9 18,0 22 12 29 16 W 1017,0 - 0,0
25.06.2019 21:00:00 20,8 18,2 18 10 21 11 W 1017,0 - 0,0
25.06.2019 20:00:00 21,8 18,0 12 7 18 10 W 1017,0 20 0,0
25.06.2019 19:00:00 21,8 18,6 11 6 19 10 W 1017,1 - 0,0
25.06.2019 18:00:00 21,2 18,4 16 9 21 11 W 1017,1 - 0,0
25.06.2019 17:00:00 22,0 18,6 16 9 21 11 W 1017,2 10 0,0
25.06.2019 16:00:00 23,1 18,8 13 7 19 10 WNW 1017,2 - 0,0
25.06.2019 15:00:00 23,4 18,9 14 8 19 11 WNW 1017,3 - 0,0
25.06.2019 14:00:00 23,1 18,2 13 7 18 10 NNW 1017,4 16 0,0
25.06.2019 13:00:00 22,6 17,9 15 8 21 11 N 1017,4 - 0,0
25.06.2019 12:00:00 22,8 18,3 11 6 16 8 N 1017,4 - 0,0
25.06.2019 11:00:00 21,3 17,1 9 5 15 8 NE 1017,2 12 0,0
25.06.2019 10:00:00 20,5 17,3 4 2 7 4 ENE 1017,4 - 0,0
25.06.2019 09:00:00 18,9 17,2 4 2 11 6 ESE 1017,5 - 0,0
25.06.2019 08:00:00 18,1 16,9 7 4 13 7 ESE 1017,3 10 0,0
25.06.2019 07:00:00 17,6 16,5 5 3 9 5 E 1017,0 - 0,0
25.06.2019 06:00:00 17,2 15,9 5 3 7 4 ESE 1016,4 - 0,0
25.06.2019 05:00:00 17,4 15,9 2 1 7 4 SSW 1016,2 20 0,0
25.06.2019 04:00:00 17,7 16,2 4 2 8 5 W 1016,3 - 0,0
25.06.2019 03:00:00 18,2 16,5 6 3 15 8 S 1016,6 - 0,0
25.06.2019 02:00:00 18,7 17,0 10 5 18 10 W 1016,9 20 0,0
25.06.2019 01:00:00 18,9 17,2 17 9 29 15 W 1017,0 - 0,0
25.06.2019 00:00:00 18,9 17,0 22 12 33 18 W 1017,0 - 0,0
24.06.2019 23:00:00 19,0 16,8 19 10 33 18 W 1016,6 - 0,0
24.06.2019 22:00:00 18,8 16,6 20 11 42 23 WSW 1016,0 - 0,0
24.06.2019 21:00:00 19,0 17,0 30 16 48 26 W 1015,2 - 0,0
24.06.2019 20:00:00 19,5 17,3 36 19 50 27 W 1014,5 10 0,0
24.06.2019 19:00:00 19,8 17,4 35 19 51 28 W 1013,8 - 0,0
24.06.2019 18:00:00 20,7 17,7 28 15 46 25 WNW 1012,8 - 0,0
24.06.2019 17:00:00 22,9 18,7 4 2 13 7 NNW 1012,4 12 0,0
24.06.2019 16:00:00 23,0 19,0 10 6 42 23 WNW 1013,0 - 0,0
24.06.2019 15:00:00 21,8 17,4 12 7 25 14 ENE 1012,2 - 0,0
24.06.2019 14:00:00 21,9 17,1 4 2 13 7 NNE 1013,4 15 0,0
24.06.2019 13:00:00 20,7 17,1 11 6 16 9 WNW 1013,6 - 0,0
24.06.2019 12:00:00 21,0 17,0 13 7 18 10 W 1013,8 - 0,0
24.06.2019 11:00:00 20,5 16,7 4 2 12 7 NNW 1013,5 18 0,0
24.06.2019 10:00:00 19,9 16,5 10 5 18 10 WNW 1013,6 - 0,0
24.06.2019 09:00:00 19,2 16,1 11 6 21 12 WSW 1013,4 - 0,0
24.06.2019 08:00:00 18,8 16,2 13 7 25 13 WSW 1013,5 18 0,0
24.06.2019 07:00:00 18,3 15,7 18 10 37 20 WSW 1013,8 - 0,0
24.06.2019 06:00:00 18,4 16,4 29 16 44 24 W 1013,7 - 0,0
24.06.2019 05:00:00 18,2 16,5 21 12 31 17 WSW 1013,3 20 0,0
24.06.2019 04:00:00 17,9 16,4 14 8 22 12 WSW 1013,0 - 0,0
24.06.2019 03:00:00 17,9 16,6 9 5 12 6 W 1013,1 - 0,0
24.06.2019 02:00:00 18,1 16,4 4 2 12 7 W 1013,3 20 0,0
24.06.2019 01:00:00 18,8 17,1 12 6 19 10 W 1014,0 - 0,0
24.06.2019 00:00:00 19,1 17,2 13 7 19 11 W 1014,1 - 0,0
23.06.2019 23:00:00 19,3 17,3 14 8 23 12 W 1014,3 - 0,0
23.06.2019 22:00:00 19,3 17,4 21 11 26 14 WNW 1013,8 - 0,0
23.06.2019 21:00:00 19,9 17,5 19 11 25 14 W 1013,6 - 0,0
23.06.2019 20:00:00 21,4 17,4 14 8 19 10 W 1013,1 15 0,0
23.06.2019 19:00:00 21,7 17,5 14 8 19 10 W 1013,3 - 0,0
23.06.2019 18:00:00 21,7 17,1 11 6 20 11 WNW 1013,4 - 0,0
23.06.2019 17:00:00 22,4 17,1 15 8 21 11 NW 1013,4 15 0,0
23.06.2019 16:00:00 23,1 17,1 13 7 18 10 WNW 1013,1 - 0,0
23.06.2019 15:00:00 23,1 17,6 6 3 14 8 NNE 1012,6 - 0,0
23.06.2019 14:00:00 23,8 18,0 10 5 18 10 NE 1012,4 - 0,0
23.06.2019 13:00:00 23,4 16,7 12 6 15 8 NE 1012,2 - 0,0
23.06.2019 12:00:00 22,8 15,9 4 2 20 11 N 1012,4 - 0,0
23.06.2019 11:00:00 22,0 16,5 19 10 38 21 W 1012,4 - 0,0
23.06.2019 10:00:00 21,0 16,2 30 16 61 33 W 1012,3 - 0,0
23.06.2019 09:00:00 26,9 12,9 37 20 61 33 S 1009,6 - 0,0
23.06.2019 08:00:00 26,3 11,6 30 16 53 28 S 1009,5 - 0,0
23.06.2019 07:00:00 26,8 10,5 38 21 54 29 S 1009,0 - 0,0
23.06.2019 06:00:00 23,0 12,6 11 6 29 16 ESE 1009,0 - 0,0
23.06.2019 05:00:00 20,0 13,9 9 5 23 13 SE 1009,3 20 0,0
23.06.2019 04:00:00 19,0 16,4 12 7 20 11 ESE 1009,4 - 0,0
23.06.2019 03:00:00 19,4 16,8 11 6 22 12 ESE 1010,3 - 0,0
23.06.2019 02:00:00 20,2 16,6 13 7 23 12 ESE 1011,0 - 0,0
23.06.2019 01:00:00 21,1 16,1 16 9 22 12 ESE 1011,3 - 0,0
23.06.2019 00:00:00 21,5 15,6 16 9 23 13 ESE 1011,7 - 0,0
22.06.2019 23:00:00 22,2 15,1 15 8 31 17 ESE 1012,0 20 0,0
22.06.2019 22:00:00 23,3 15,1 23 12 40 22 E 1011,6 - 0,0
22.06.2019 21:00:00 24,8 15,7 24 13 44 24 E 1011,6 - 0,0
22.06.2019 20:00:00 25,2 16,3 28 15 42 23 E 1011,7 - 0,0
22.06.2019 19:00:00 26,8 16,4 29 16 39 21 E 1012,0 - 0,0
22.06.2019 18:00:00 27,3 16,9 25 14 38 20 E 1012,5 - 0,0
22.06.2019 17:00:00 27,0 16,9 22 12 40 22 E 1013,0 20 0,0
22.06.2019 16:00:00 27,1 16,7 26 14 38 20 E 1013,7 - 0,0
22.06.2019 15:00:00 26,0 16,3 24 13 33 18 ENE 1014,5 - 0,0
22.06.2019 14:00:00 25,2 16,1 25 13 38 21 ENE 1015,3 - 0,0
22.06.2019 13:00:00 23,9 15,4 25 13 36 19 ENE 1016,3 - 0,0
22.06.2019 12:00:00 21,8 14,2 20 11 32 17 E 1016,9 - 0,0
22.06.2019 11:00:00 20,4 14,5 11 6 23 12 ESE 1017,5 20 0,0
22.06.2019 10:00:00 18,1 13,4 10 6 15 8 ESE 1018,1 - 0,0
22.06.2019 09:00:00 15,0 12,3 5 3 9 5 E 1018,3 - 0,0
22.06.2019 08:00:00 12,4 11,3 7 4 12 6 S 1018,7 - 0,0
22.06.2019 07:00:00 11,5 10,6 7 4 12 6 SSE 1018,9 - 0,0
22.06.2019 06:00:00 11,4 10,3 6 3 10 5 ESE 1019,0 - 0,0
22.06.2019 05:00:00 11,8 10,5 7 4 14 7 S 1019,5 20 0,0
22.06.2019 04:00:00 12,3 11,0 8 4 15 8 S 1019,9 - 0,0
22.06.2019 03:00:00 12,5 11,1 6 4 16 8 S 1020,4 - 0,0
22.06.2019 02:00:00 12,9 11,3 16 8 16 9 S 1020,8 15 0,0
22.06.2019 01:00:00 13,4 11,6 10 5 16 9 S 1021,5 - 0,0
22.06.2019 00:00:00 14,1 12,1 13 7 15 8 S 1022,0 - 0,0
21.06.2019 23:00:00 15,1 12,2 7 4 9 5 S 1021,9 - 0,0
21.06.2019 22:00:00 16,7 11,8 7 4 13 7 NNW 1021,4 - 0,0
21.06.2019 21:00:00 17,9 12,1 8 4 16 8 NW 1021,3 - 0,0
21.06.2019 20:00:00 19,0 12,7 9 5 19 10 NNW 1021,2 20 0,0
21.06.2019 19:00:00 19,9 13,1 14 8 23 12 NW 1021,0 - 0,0
21.06.2019 18:00:00 20,2 12,4 15 8 22 12 WNW 1020,8 - 0,0
21.06.2019 17:00:00 19,0 12,7 14 8 22 12 WNW 1020,9 20 0,0
21.06.2019 16:00:00 19,7 13,4 20 11 30 16 W 1021,2 - 0,0
21.06.2019 15:00:00 19,1 11,6 20 11 28 15 WNW 1021,4 - 0,0
21.06.2019 14:00:00 18,9 13,7 18 10 26 14 W 1021,4 20 0,2
21.06.2019 13:00:00 18,0 14,7 14 8 22 12 W 1021,2 - 0,0
21.06.2019 12:00:00 16,2 13,9 3 2 7 4 W 1021,1 - 0,0

tt = Température de l'air
td = dewpoint
ff = Vitesse du vent
fx = gusts
dd = Direction du vent
ppp = reduced air pressure
vv = visibility
rr = Quantités de précipitations

stations d'obs. à proximité